Home   Weather   Barrow   Past weeks

Flag for USA Past Weather in Barrow, Alaska, USA — Yesterday and Last 2 Weeks

Now
-15 °F

Sunny.


Feels Like: -37 °F
Forecast: -8 / 0 °F
Wind: 13 mph from South

Location: Post Rogers Memorial Airport

Current Time: Dec 4, 2016 at 11:28:50 am

Latest Report: Dec 4, 2016 at 10:53 am


Visibility: 4 mi

Pressure: 30.81 "Hg

Humidity: 74%

Dew Point: -21 °F

Location of BarrowLocation

Past Weather in Barrow — Graph

°F

Barrow Temperature Yesterday

Maximum temperature yesterday: 1 °F (at 11:53 pm)
Minimum temperature yesterday: -15 °F (at 1:53 am)
Average temperature yesterday: -5 °F

High & Low Weather Summary for the Past Weeks

 TemperatureHumidityPressure
High23 °F (Nov 19, 9:53 pm)95% (Nov 30, 6:56 am)30.80 "Hg (Nov 30, 6:56 am)
Low-21 °F (Nov 27, 10:53 am)66% (Nov 26, 7:53 pm)29.55 "Hg (Nov 26, 9:53 pm)
Average4 °F77%29.95 "Hg
* Reported Nov 19 9:53 am — Dec 4 9:53 am, Barrow, Weather by CustomWeather, © 2016

Note: Actual official high and low records may vary slightly from our data, if they occured in-between our weather recording intervals... More about our weather records

Advertising

Barrow Weather History for the Previous 24 Hours

Scroll right to see more
 ConditionsComfort  
Time TempWeatherWind HumidityBarometerVisibility
9:53 am
Sun, Dec 4
-13 °FSunny.14 mph74%30.80 "Hg10 mi
8:53 am-12 °FPassing clouds.10 mph70%30.80 "Hg10 mi
7:53 am-8 °FOvercast.15 mph71%30.78 "Hg10 mi
6:53 am-5 °FOvercast.8 mph72%30.77 "Hg10 mi
5:53 am-3 °FOvercast.10 mphN/A30.76 "Hg10 mi
4:53 am-2 °FOvercast.12 mph72%30.74 "Hg10 mi
3:53 am-1 °FOvercast.9 mph71%30.73 "Hg10 mi
2:53 am-1 °FOvercast.10 mph71%30.72 "Hg10 mi
1:53 am0 °FOvercast.14 mph71%30.71 "Hg10 mi
12:53 am1 °FOvercast.16 mph68%30.71 "Hg10 mi
11:53 pm
Sat, Dec 3
1 °FOvercast.14 mph68%30.69 "Hg10 mi
10:53 pm0 °FOvercast.15 mph71%30.68 "Hg10 mi
9:53 pm0 °FOvercast.15 mph71%30.66 "Hg10 mi
8:53 pm-1 °FOvercast.17 mph71%30.64 "Hg10 mi
7:53 pm-1 °FOvercast.18 mph71%30.61 "Hg8 mi
6:53 pm-2 °FOvercast.18 mph75%30.60 "Hg7 mi
5:53 pm-2 °FOvercast.20 mph75%30.58 "Hg8 mi
4:53 pm-3 °FOvercast.17 mph75%30.56 "Hg10 mi
3:53 pm-3 °FOvercast.13 mph75%30.55 "Hg10 mi
2:53 pm-3 °FOvercast.12 mph75%30.54 "Hg10 mi
1:53 pm-3 °FOvercast.10 mph75%30.53 "Hg10 mi
12:53 pm-3 °FOvercast.10 mph75%30.52 "Hg10 mi
11:53 am-3 °FOvercast.12 mph75%30.50 "Hg10 mi
Weather by CustomWeather, © 2016

See weather overviewHow to use our weather pages